Other Surface Observations
Issued by NWS Tucson, AZ

Current Version | Previous Version | Text Only | Print | Product List | Glossary On
Versions: 1 2 3 4 5 6 7 8 9 10 11 12 13 14 15 16 17 18 19 20 21 22 23 24 25 26 27 28 29 30 31 32 33 34 35 36 37 38 39 40 41 42 43 44 45 46 47 48 49 50
000
SXUS55 KTWC 210515
OSOTWC

WEATHER ROUNDUP FOR SOUTHEAST ARIZONA
NATIONAL WEATHER SERVICE TUCSON AZ
1015 PM MST WED SEP 20 2017

AZZ504>506-514-210615-
LOCATION       SKY/WX    TMP DP  RH WIND       PRES   REMARKS
TUCSON         CLEAR     81  44  27 CALM      29.90R
DAVIS-MONTHAN  CLEAR     78  45  30 S6        29.89R
CHILDRENS PARK N/A      N/A N/A  18 NW2               PIMA CO DEQ
ALVERNON/22ND  N/A       85 N/A N/A W3                PIMA CO DEQ
CHERRY/GLENN   N/A      N/A N/A N/A N/A               PIMA CO DEQ
TANGERINE      N/A       84 N/A N/A W4                PIMA CO DEQ
CONTL RANCH    N/A       87  30  13 SW8               PIMA CO DEQ
GRANT/1ST      N/A       85  38  19 W2                PIMA CO DEQ
CRAYCROFT/22ND N/A       86  45  24 W5                PIMA CO DEQ
GOLFLINKS/KOLB N/A      N/A N/A N/A N/A               PIMA CO DEQ
AJO/12TH       N/A       86  39  19 W5                PIMA CO DEQ
FAIRGROUNDS    N/A       81 N/A N/A SW6               PIMA CO DEQ
SAGUARO        N/A       83  36  19 NW3G11            *SABINO CYN
SAN CARLOS     N/A       80  33  18 SW3               *SAN CARLOS
GREEN VALLEY   N/A       82  41  23 W7                PIMA CO DEQ
HORSE CAMP CYN N/A       78  27  15 W9G14             *ARAVAIPA CYN
RINCON MTNS    N/A       56  45  66 SW3G12            *NR MANNING CAMP
$$

AZZ509>511-210615-
LOCATION       SKY/WX    TMP DP  RH WIND       PRES   REMARKS
SAFFORD        CLEAR     80  44  27 NW8       29.89R
STRAY HORSE    N/A       61  37  41 W8G17             *
TRAIL CABIN    N/A       67  41  38 SW3               *N OF GRANVILLE
BLACK HILLS    NOT AVBL
DRY LAKE       N/A       60  34  37 W3                *NATANES MTNS
NOON CREEK     N/A       75  41  30 SW2G11            *PINALENO MTNS
COLUMBINE      N/A       53  42  65 SW5G13            *PINALENO MTNS
GUTHRIE        N/A       70  44  39 W9G17             *SW OF GUTHRIE
$$

AZZ502-503-513-210615-
LOCATION       SKY/WX    TMP DP  RH WIND       PRES   REMARKS
NOGALES        CLEAR     73  57  57 S6        30.00R
SELLS          N/A       78  31  18 NE6G10            *
SASABE         N/A       71  40  33 S6                *ALTAR VLY
HOPKINS        N/A       61  50  68 W7G16             *SANTA RITA MTNS
CARR CYN       N/A       68  55  63 CALM              *W OF HEREFORD
$$

AZZ507-508-512-210615-
LOCATION       SKY/WX    TMP DP  RH WIND       PRES   REMARKS
SIERRA VISTA   CLEAR     74  54  49 SW8       30.05R
DOUGLAS        CLEAR     73  53  49 S5        30.01R
EMPIRE MTNS    NOT AVBL
MULESHOE RANCH N/A       77  46  33 W5G10             *PRESERVE
HEADQUARTERS   N/A       69  47  46 CALM              *CHIRICAHUA MTNS
$$

.............................NOTES.............................
THIS IS AN AUTOMATED COLLECTIVE WITH MINIMAL QUALITY CONTROL.
PIMA CO DEQ SITES HAVE NONSTANDARD WIND SENSOR HEIGHTS.
PIMA CO DEQ SITES DO NOT REPORT WIND GUSTS.
* INDICATES WIND SENSORS LOCATED AT 20 FEET INSTEAD OF 33 FEET.
..............................KEY..............................
SKY/WX - SKY CONDITION/WEATHER
TMP    - TEMPERATURE IN FAHRENHEIT
DP     - DEWPOINT IN FAHRENHEIT
RH     - RELATIVE HUMIDITY IN PERCENT
WIND   - DIRECTION AND SPEED IN MILES PER HOUR (MPH)
VRB    - VARIABLE WIND DIRECTION
PRES   - MEAN SEA LEVEL PRESSURE IN INCHES OF MERCURY
         F - FALLING PRESSURE   R - RISING PRESSURE
         S - STEADY PRESSURE
VSB    - VISIBILITY IN MILES
HX     - HEAT INDEX IN FAHRENHEIT
WCI    - WIND CHILL INDEX IN FAHRENHEIT
N/A    - NOT AVAILABLE
AFB    - AIR FORCE BASE
         DAVIS-MONTHAN IS DAVIS-MONTHAN AIR FORCE BASE
CYN    - CANYON
MTNS   - MOUNTAINS
NCA    - NATIONAL CONSERVATION AREA
NR     - NEAR
VLY    - VALLEY
CONTL  - CONTINENTAL
PIMA CO DEQ - PIMA COUNTY DEPT OF ENVIRONMENTAL QUALITY



USA.gov is the U.S. government's official web portal to all federal, state and local government web resources and services.